Regional Weather Roundup
Issued by NWS

Home | Current Version | Previous Version | Text Only | Print | Product List | Glossary Off
Versions: 1 2 3 4 5 6 7 8 9 10 11 12 13 14 15 16 17 18 19 20 21 22 23 24 25 26 27 28 29 30 31 32 33 34 35 36 37 38 39 40 41 42 43 44 45 46 47 48 49 50

000
ASUS43 KLSX 230059
RWRMO

WEATHER SUMMARY FOR MISSOURI
NATIONAL WEATHER SERVICE SPRINGFIELD MO
800 PM CDT FRI MAY 22 2015

NOTE: "FAIR" INDICATES FEW OR NO CLOUDS BELOW 12,000 FEET WITH NO
       SIGNIFICANT WEATHER AND/OR OBSTRUCTIONS TO VISIBILITY.
       CURRENT SKY AND/OR WEATHER CONDITIONS ARE NOT AVAILABLE FOR
       CHILLICOTHE AND FARMINGTON.

MOZ001>031-035>038-043-044-053-054-230200-
...NORTHERN AND WESTERN MISSOURI...

CITY           SKY/WX    TMP DP  RH WIND       PRES   REMARKS
KANSAS CTY INT CLOUDY    62  49  62 SE8       30.20F
KANSAS C DTWN  CLOUDY    64  48  56 E8        30.19F
LEE`S SUMMIT   CLOUDY    61  52  72 E7        30.20F
ST JOSEPH      CLOUDY    64  50  60 SE9       30.19F
KIRKSVILLE     MOCLDY    63  54  72 SW5       30.24S

$$
MOZ066>068-077>081-088>096-101>105-230200-
...SOUTHWEST MISSOURI...

CITY           SKY/WX    TMP DP  RH WIND       PRES   REMARKS
SPRINGFIELD    CLOUDY    62  48  60 SE9       30.19S
JOPLIN         CLOUDY    63  50  62 E6        30.18S

$$
MOZ032>034-039>042-045>050-055>058-069>072-230200-
...CENTRAL MISSOURI...

CITY           SKY/WX    TMP DP  RH WIND       PRES   REMARKS
COLUMBIA       CLOUDY    65  52  62 SE3       30.23R
JEFFERSON CITY CLOUDY    67  52  58 E5        30.22S
ROLLA          CLOUDY    64  53  67 E5        30.22S
SEDALIA        CLOUDY    64  55  72 E5        30.23S
OSAGE BEACH    CLOUDY    64  52  63 E5        30.21F

$$
MOZ051-052-059>065-230200-
...EAST CENTRAL MISSOURI...

CITY           SKY/WX    TMP DP  RH WIND       PRES   REMARKS
ST LOUIS INTL  CLOUDY    71  49  45 W6        30.24R
SPIRIT OF STL  CLOUDY    66  58  75 CALM      30.23R
ST CHARLES     CLOUDY    70  51  51 W6        30.23R

$$
MOZ072>076-082>087-097>100-106>115-230200-
...SOUTH CENTRAL AND SOUTHEAST MISSOURI...

CITY           SKY/WX    TMP DP  RH WIND       PRES   REMARKS
CAPE GIRARDEAU CLOUDY    66  57  72 CALM      30.25R
FARMINGTON     MOCLDY    66  52  59 S3        30.29R
POPLAR BLUFF   CLOUDY    65  53  65 E3        30.23S
WEST PLAINS    CLOUDY    62  48  60 E5        30.24F

$$


USA.gov is the U.S. government's official web portal to all federal, state and local government web resources and services.